Location: Tafessasset
(32.5899°N, 5.4824°W)
Time: 18:25:59
(UTC+00:00)

Okean O Rocket - Pass Details

Date: 18 February 2020
Orbit: 622 x 645 km, 98.2° (Epoch: 03 April)

Event Time Altitude Azimuth Distance (km) Brightness Sun altitude
Rises 05:22:03 0° 26° (NNE) 2,919 5.4 -21.8°
Reaches altitude 10° 05:24:30 10° 37° (NE) 2,004 4.6 -21.3°
Maximum altitude 05:28:16 28° 97° (E) 1,165 3.7 -20.5°
Drops below altitude 10° 05:32:00 10° 157° (SSE) 1,985 4.4 -19.7°
Sets 05:34:25 0° 169° (S) 2,885 5.2 -19.2°
